[[{"header":{"parameterUnit":"m.s-1","parameterCategory":1,"la1":30.2991,"la2":30.254,"lo1":-89.0895,"lo2":-89.0444,"dy":0.0017,"dx":0.0017,"nx":28,"ny":28,"refTime":"2025-05-29T09:00:00:Z","depth":0,"parameterNumber":2,"parameterNumberName":"U-component_of_WINDS"},"data":[0,0,0,0,0,0,0,0,0,0,0,0,0,0,0,0,0,0,0,0,0,0,0,0,0,0,0,0,0,0,0,0,0,0,0,0,0,0,0,0,0,0,0,0,0,0,0,0,0,0,0,0,0,0,0,0,0,0,3.4169,3.4169,0,3.4223,3.4224,3.4225,3.4127,3.4124,3.412,3.4117,3.4181,3.4186,3.4191,0,0,0,0,0,0,0,0,0,0,0,0,0,3.3989,3.3992,3.4168,3.4169,3.417,3.4223,3.4224,3.4225,3.4128,3.4124,3.4119,3.4116,3.418,3.4185,3.4191,0,0,0,0,0,0,0,0,0,0,0,0,0,3.4058,3.3994,3.4168,3.4128,3.4124,3.4223,3.4224,3.4225,3.4128,3.4123,3.4118,3.4114,3.4178,3.4185,3.4192,3.4335,0,0,3.4214,3.4217,0,0,0,0,0,0,0,0,3.4054,3.4064,3.4133,3.4131,3.4127,3.4163,3.4184,3.4262,3.413,3.4127,3.4117,3.4111,3.418,3.4186,3.4208,3.4338,3.4341,3.4214,3.4219,3.4222,3.4224,0,0,0,0,0,0,0,3.4049,3.4062,3.419,3.4134,3.4131,3.411,3.4114,3.4198,3.4181,3.4127,3.412,3.4127,3.4177,3.4201,3.4209,3.4342,3.4214,3.4221,3.4225,3.4228,3.4597,3.4602,0,0,0,0,0,0,3.4048,3.4058,3.4189,3.4192,3.4077,3.4117,3.4122,3.4157,3.4179,3.4178,3.4132,3.4123,3.4191,3.42,3.4211,3.4382,3.4222,3.4228,3.4233,3.4591,3.4598,3.4604,0,0,0,0,0,0,3.4045,3.4061,3.4186,3.4123,3.4137,3.4125,3.4165,3.416,3.4184,3.4183,3.418,3.4159,3.4188,3.42,3.4305,3.4383,3.4232,3.4238,3.4585,3.4593,3.4601,3.4725,0,0,0,0,0,0,3.404,3.406,3.4112,3.4125,3.4141,3.4278,3.417,3.4165,3.4196,3.4185,3.4207,3.4207,3.4185,3.4295,3.4312,3.439,3.4244,3.4578,3.4589,3.4598,3.4714,3.4736,3.4755,0,0,0,0,0,3.4034,3.4146,3.4115,3.4131,3.4205,3.4282,3.4292,3.4262,3.4202,3.4256,3.4256,3.4206,3.4371,3.4307,3.4325,3.4406,3.4573,3.4585,3.4597,3.4704,3.4732,3.4755,0,0,0,0,0,0,3.4144,3.4147,3.4113,3.4231,3.4257,3.4265,3.4332,3.4292,3.4337,3.4325,3.4289,3.4295,3.4408,3.4417,3.4345,3.4548,3.4462,3.4479,3.4537,3.4563,3.4584,3.458,3.425,0,0,0,0,0,3.4182,3.4241,3.4241,3.4346,3.4361,3.4345,3.4377,3.4352,3.4378,3.4389,3.4396,3.4426,3.4485,3.4525,3.4579,3.4715,3.472,3.478,3.4801,3.4818,3.4833,3.4909,3.4936,3.4644,3.4644,3.4644,0,0,3.4261,3.427,3.431,3.4369,3.4385,3.4451,3.4354,3.4427,3.4476,3.4401,3.45,3.4507,3.4538,3.466,3.4714,3.4672,3.4915,3.4834,3.4847,3.4853,3.4925,3.4952,3.4977,3.4653,3.4651,3.465,0,0,3.4439,3.4451,3.454,3.4559,3.4586,3.4575,3.4597,3.4612,3.4613,3.4711,3.4657,3.4717,3.4818,3.4843,3.4869,3.5061,3.5017,3.508,3.5189,3.5263,3.5286,3.5306,3.5377,3.5402,3.5095,3.5095,3.5095,0,3.4535,3.4628,3.4592,3.4669,3.4698,3.4631,3.4724,3.4745,3.479,3.4813,3.4764,3.4891,3.4907,3.5035,3.5082,3.5105,3.5131,3.5077,3.5285,3.5305,3.5324,3.539,3.5417,3.5102,3.5101,3.5101,3.51,0,3.4746,3.4812,3.4882,3.4924,3.4961,3.5046,3.5026,3.5068,3.5041,3.5037,3.514,3.5158,3.5215,3.5244,3.5218,3.537,3.5343,3.529,3.5204,3.536,3.5422,3.5447,3.5113,3.511,3.5108,3.5106,0,0,3.4994,3.5016,3.5042,3.5062,3.5087,3.5139,3.5223,3.5277,3.5315,3.5349,3.542,3.5509,3.5461,3.5491,3.5469,3.5534,3.5687,3.5474,3.5474,3.5514,3.5858,3.5898,3.5928,3.5659,3.5663,3.5667,3.5856,0,3.5172,3.5312,3.5283,3.5423,3.5485,3.5424,3.5498,3.5523,3.5522,3.5578,3.5577,3.5641,3.5572,3.5591,3.5652,3.5655,3.5756,3.5641,3.5728,3.5731,3.5722,3.596,3.6002,3.6179,3.588,3.5884,3.5887,0,3.5397,3.5438,3.5583,3.56,3.5626,3.5692,3.574,3.5793,3.5823,3.5818,3.5852,3.5818,3.5905,3.5818,3.5939,3.5862,3.5896,3.5903,3.591,3.5917,3.5819,3.5976,3.6235,3.6262,3.5925,3.5922,3.5919,0,3.5566,3.5657,3.5756,3.5774,3.5797,3.5845,3.5858,3.5882,3.5917,3.5961,3.5985,3.6039,3.607,3.6114,3.6098,3.6035,3.6224,3.6134,3.6225,3.6225,3.6267,3.6265,3.6537,3.6288,3.6287,3.6287,3.6286,0,3.5768,3.586,3.5832,3.5893,3.5995,3.5963,3.6066,3.6072,3.6094,3.6158,3.611,3.6172,3.6145,3.6206,3.6194,3.6298,3.6312,3.6313,3.6308,3.6317,3.6317,3.6339,3.6327,3.6294,3.6292,3.6291,3.629,0,3.5973,3.5958,3.6062,3.6075,3.6081,3.6156,3.6169,3.6228,3.6223,3.6305,3.6322,3.6317,3.6386,3.6374,3.6451,3.6443,3.6574,3.6554,3.6563,3.6559,3.6651,3.6643,3.6947,3.6986,3.6711,3.6714,3.6716,0,3.6103,3.6172,3.6193,3.6231,3.6246,3.6308,3.6344,3.6317,3.6357,3.6397,3.6452,3.6517,3.6567,3.6682,3.6687,3.6747,3.6729,3.6832,3.6738,3.6746,3.6733,3.6729,3.6737,3.685,3.6854,3.6856,3.6858,0,3.6337,3.6327,3.6378,3.6429,3.6472,3.6511,3.6545,3.658,3.6557,3.6605,3.6674,3.6713,3.6792,3.6858,3.6914,3.6931,3.6893,3.6888,3.6912,3.6922,3.6925,3.6926,3.6615,3.6881,3.6879,3.6877,3.6876,3.6875,3.651,3.6569,3.6593,3.6653,3.6676,3.671,3.6767,3.6769,3.6826,3.6886,3.6867,3.6947,3.6979,3.705,3.7073,3.7137,3.71,3.7135,3.7144,3.7153,3.7165,3.6914,3.7148,3.7147,3.7146,3.7146,3.7145,0,3.6742,3.6755,3.681,3.686,3.6908,3.6865,3.6902,3.6947,3.7016,3.7047,3.7098,3.718,3.7244,3.7255,3.7317,3.7367,3.7351,3.7385,3.7381,3.7386,3.7194,3.7167,3.7396,3.7396,3.7396,3.7396,3.7396,3.7396,3.6869,3.6967,3.696,3.7071,3.7084,3.7159,3.7185,3.7217,3.7242,3.7334,3.7387,3.7392,3.7417,3.7481,3.754,3.7542,3.7568,3.7608,3.7604,3.7424,3.7399,3.7375,3.735,3.7614,3.7614,3.779,3.7792,3.7793]},{"header":{"parameterUnit":"m.s-1","parameterCategory":1,"la1":30.2991,"la2":30.254,"lo1":-89.0895,"lo2":-89.0444,"dy":0.0017,"dx":0.0017,"nx":28,"ny":28,"refTime":"2025-05-29T09:00:00:Z","depth":0,"parameterNumber":3,"parameterNumberName":"V-component_of_WINDS"},"data":[0,0,0,0,0,0,0,0,0,0,0,0,0,0,0,0,0,0,0,0,0,0,0,0,0,0,0,0,0,0,0,0,0,0,0,0,0,0,0,0,0,0,0,0,0,0,0,0,0,0,0,0,0,0,0,0,0,0,1.4442,1.4444,0,1.4614,1.4616,1.4618,1.4644,1.4642,1.4641,1.4639,1.4818,1.4824,1.483,0,0,0,0,0,0,0,0,0,0,0,0,0,1.4139,1.4145,1.4442,1.4444,1.4447,1.4614,1.4616,1.4618,1.4644,1.4642,1.4641,1.4639,1.4816,1.4823,1.483,0,0,0,0,0,0,0,0,0,0,0,0,0,1.4287,1.4146,1.4442,1.448,1.4485,1.4613,1.4616,1.4619,1.4645,1.4642,1.464,1.4638,1.4813,1.4822,1.4831,1.4935,0,0,1.486,1.4864,0,0,0,0,0,0,0,0,1.4278,1.4298,1.4472,1.4477,1.4483,1.4605,1.4575,1.4725,1.4645,1.4584,1.4639,1.4637,1.4749,1.4763,1.4801,1.4944,1.4951,1.4861,1.4866,1.487,1.4873,0,0,0,0,0,0,0,1.4268,1.4291,1.451,1.4474,1.4481,1.4489,1.4507,1.4603,1.4678,1.4589,1.4591,1.4611,1.4752,1.4792,1.4805,1.4954,1.486,1.4869,1.4874,1.4878,1.519,1.5192,0,0,0,0,0,0,1.4251,1.4282,1.4505,1.4515,1.4373,1.4496,1.4517,1.4568,1.4677,1.4691,1.4613,1.4612,1.4777,1.4794,1.4812,1.494,1.487,1.4879,1.4884,1.5187,1.519,1.5193,0,0,0,0,0,0,1.4244,1.427,1.4498,1.44,1.4429,1.4504,1.4562,1.4573,1.4613,1.4695,1.4708,1.464,1.4776,1.4799,1.4904,1.4946,1.4883,1.4892,1.5184,1.5188,1.5192,1.5197,0,0,0,0,0,0,1.4235,1.4268,1.4308,1.44,1.4434,1.4587,1.4564,1.4578,1.4629,1.4629,1.4724,1.4737,1.4776,1.489,1.4913,1.4958,1.4899,1.5181,1.5186,1.5191,1.5193,1.5201,1.5207,0,0,0,0,0,1.4225,1.4303,1.4309,1.4336,1.4485,1.4589,1.4609,1.4651,1.4632,1.4673,1.4725,1.4734,1.4938,1.4901,1.4927,1.4975,1.5178,1.5184,1.519,1.519,1.5199,1.5207,0,0,0,0,0,0,1.4214,1.4316,1.4324,1.4435,1.4503,1.4593,1.4646,1.4659,1.4735,1.4732,1.4782,1.4803,1.4906,1.4951,1.4908,1.5081,1.5057,1.5068,1.5048,1.5057,1.5063,1.505,1.4907,0,0,0,0,0,1.4225,1.43,1.4385,1.4474,1.4508,1.4571,1.4618,1.4644,1.4718,1.4747,1.4807,1.4878,1.4958,1.501,1.5088,1.52,1.5221,1.5246,1.5253,1.5258,1.5268,1.533,1.5342,1.5213,1.5213,1.5213,0,0,1.4248,1.4312,1.4357,1.4474,1.453,1.4607,1.4595,1.4678,1.4736,1.476,1.4863,1.4909,1.4992,1.5101,1.5152,1.5142,1.5308,1.5266,1.5269,1.5276,1.5337,1.5349,1.536,1.5218,1.5217,1.5216,0,0,1.4328,1.4385,1.4465,1.4521,1.4606,1.4647,1.4666,1.4755,1.4787,1.489,1.491,1.498,1.5117,1.5175,1.5222,1.5325,1.5336,1.5349,1.5384,1.5444,1.5454,1.5463,1.5499,1.5512,1.5358,1.5358,1.5358,0,1.4346,1.4462,1.4505,1.4587,1.4637,1.4662,1.4744,1.4796,1.4903,1.4938,1.4925,1.5096,1.5154,1.5276,1.5301,1.5339,1.5363,1.5338,1.5449,1.5459,1.5468,1.5503,1.5517,1.5359,1.5359,1.5359,1.5359,0,1.448,1.456,1.4615,1.4716,1.4773,1.4855,1.491,1.4963,1.4984,1.5027,1.5133,1.5202,1.5295,1.5326,1.5348,1.5452,1.5443,1.5439,1.5415,1.5481,1.5514,1.5528,1.536,1.536,1.536,1.536,0,0,1.4559,1.4682,1.4701,1.4747,1.4842,1.4906,1.4988,1.5078,1.5122,1.5195,1.5265,1.538,1.5377,1.5431,1.546,1.5512,1.5588,1.5502,1.5505,1.5515,1.5706,1.5708,1.5722,1.5596,1.5599,1.5601,1.5699,0,1.4651,1.4797,1.4838,1.4963,1.5038,1.5062,1.5134,1.52,1.5242,1.5312,1.5359,1.544,1.543,1.5462,1.5515,1.5567,1.5627,1.5561,1.5662,1.5665,1.564,1.574,1.5743,1.5832,1.5712,1.5714,1.5716,0,1.4777,1.4851,1.4982,1.5067,1.51,1.5164,1.5249,1.5316,1.5392,1.5419,1.5478,1.5503,1.559,1.5561,1.5683,1.5637,1.5681,1.5712,1.5717,1.5728,1.5694,1.5753,1.5861,1.5874,1.5737,1.5736,1.5734,0,1.4821,1.4953,1.5049,1.5088,1.5189,1.5233,1.5278,1.5352,1.5403,1.5477,1.5511,1.5595,1.5641,1.5706,1.5752,1.5727,1.5869,1.5845,1.5894,1.5893,1.5923,1.592,1.6038,1.5951,1.5951,1.5951,1.5951,0,1.4918,1.4998,1.507,1.5129,1.5219,1.5265,1.5353,1.5398,1.5463,1.5532,1.5558,1.5622,1.5679,1.5751,1.5788,1.5882,1.5903,1.5927,1.5936,1.5925,1.5922,1.5954,1.5949,1.5955,1.5954,1.5953,1.5952,0,1.4982,1.5034,1.5139,1.5227,1.5251,1.5313,1.5388,1.5446,1.5489,1.5576,1.5599,1.5666,1.5752,1.5804,1.5913,1.5938,1.6042,1.6048,1.6016,1.602,1.6066,1.606,1.6209,1.623,1.6129,1.613,1.6131,0,1.5041,1.5102,1.5196,1.5243,1.5288,1.5364,1.5416,1.5464,1.5517,1.5608,1.5655,1.5742,1.5815,1.595,1.6009,1.6093,1.6101,1.6148,1.6114,1.61,1.6101,1.6097,1.6103,1.6153,1.6154,1.6154,1.6155,0,1.5139,1.5161,1.5235,1.5317,1.5378,1.5446,1.5513,1.5551,1.561,1.5669,1.5756,1.5812,1.5922,1.6009,1.6097,1.6143,1.6159,1.6165,1.6181,1.617,1.6148,1.616,1.603,1.6161,1.6161,1.616,1.616,1.616,1.5202,1.5257,1.5332,1.5413,1.5468,1.553,1.5589,1.5639,1.5713,1.5806,1.583,1.5921,1.5996,1.6116,1.6164,1.6237,1.623,1.6253,1.6258,1.6263,1.6264,1.6136,1.6253,1.6253,1.6253,1.6253,1.6253,0,1.5301,1.535,1.5424,1.5517,1.558,1.5589,1.5664,1.5717,1.5797,1.5864,1.5935,1.6035,1.6118,1.6184,1.627,1.6315,1.6324,1.6336,1.6333,1.6343,1.6265,1.6243,1.6327,1.6327,1.6327,1.6327,1.6327,1.6327,1.536,1.5454,1.5485,1.5607,1.5656,1.5745,1.5787,1.5845,1.5899,1.6009,1.6079,1.6121,1.6188,1.6278,1.6355,1.6372,1.6402,1.6412,1.6431,1.6357,1.6349,1.6341,1.632,1.6419,1.6419,1.6503,1.6503,1.6504]}]]